Regional Weather Roundup
Issued by NWS Goodland, KS

Home | Current Version | Previous Version | Text Only | Print | Product List | Glossary On
Versions: 1 2 3 4 5 6 7 8 9 10 11 12 13 14 15 16 17 18 19 20 21 22 23 24 25 26 27 28 29 30 31 32 33 34 35 36 37 38 39 40 41 42 43 44 45 46 47 48 49 50
000
ASUS43 KGLD 172008
RWRGLD

GOODLAND FORECAST AREA HOURLY WEATHER ROUNDUP
NATIONAL WEATHER SERVICE GOODLAND KS
100 PM MST FRI NOV 17 2017

...OFFICIAL OBSERVATIONS...

CITY           SKY/WX    TMP DP  RH WIND       PRES   REMARKS
GOODLAND KS    SUNNY     69  33  26 N18G26    29.54F
HILL CITY KS   CLOUDY    73  38  27 N9        29.50F
IMPERIAL NEB   NOT AVBL
MCCOOK NEB     LGT RAIN  60  34  37 N13       29.55S
AKRON CO       CLOUDY    62  31  31 NE5       29.59F
BURLINGTON CO  SUNNY     74  34  23 SE6       29.55F
LIMON CO       SUNNY     69  31  24 SW21G32   29.59F
$$

...UNOFFICIAL OBSERVATIONS...

CITY           SKY/WX    TMP DP  RH WIND       PRES   REMARKS
COLBY KS       SUNNY     70  37  30 N15       29.55R
LENORA KS        N/A     70  32  24 N7          N/A
NORTON KS      SUNNY     68  36  30 N5        29.52
SHARON SPRINGS   N/A     76  38  25 SW13G24     N/A
TRIBUNE KS     CLOUDY    75  37  25 S9        29.59
TRENTON NEB      N/A     57  32  39 N7          N/A
KIT CARSON CO    N/A     75  36  24 MISG        N/A
YUMA CO        FAIR      55  32  41 NE8       29.57F
$$



USA.gov is the U.S. government's official web portal to all federal, state and local government web resources and services.